Starlink 32890

operational
NORAD ID: 62896 Int'l Des: 2025-024 Owner: SPXS Country: US Constellation: starlink
LEOCIRCULAR

About Starlink 32890

Description loading...

Live Position

Loading 3D Globe...

Upcoming Passes

Altitude History

Altitude vs Time

uPlot chart will show altitude changes over time

Two-Line Element Set

1 62896U 25024T 26036.66295338 .00050720 00000-0 18371-2 0 9999
2 62896 42.9984 145.7334 0001218 278.8309 81.2405 15.27632851 57377
Epoch: Feb 5, 2026 • Age: 14 hours

Current Status

Altitude 483.3 km
Velocity 7.63 km/s
Sub-Earth Point 27.44°N, 53.68°W
Launch Date Feb 4, 2025
Age 1 years
Type internet

Technical Details

Classification Payload
Mass 730.00 kg
Dry Mass 700.00 kg
Total Mass 730.00 kg
Length 0.30 m
Diameter 4.10 m
Span 29.00 m
Shape Box + pan
Manufacturer SPXS
Bus Type Starlink V2M
Phase Status In Orbit
Owner/State SPXS/US

Large Constellations

Loading constellations...